Time,TemperatureF,DewpointF,PressureIn,WindDirection,WindDirectionDegrees,WindSpeedMPH,WindSpeedGustMPH,Humidity,HourlyPrecipIn,Conditions,Clouds,dailyrainin,SoftwareType,DateUTC
2013-05-04 00:02:00,58.4,16.2,29.92,NNE,17,1.0,2.0,19,0.00,,,0.00,WUHU216DAVISVP2,2013-05-04 07:02:00,
2013-05-04 00:07:00,58.8,16.6,29.92,NNE,22,1.0,2.0,19,0.00,,,0.00,WUHU216DAVISVP2,2013-05-04 07:07:00,
2013-05-04 00:13:00,58.8,16.6,29.92,NNE,19,1.0,2.0,19,0.00,,,0.00,WUHU216DAVISVP2,2013-05-04 07:13:00,
2013-05-04 00:18:00,59.1,15.6,29.92,NNE,19,1.0,2.0,18,0.00,,,0.00,WUHU216DAVISVP2,2013-05-04 07:18:00,
2013-05-04 00:23:00,59.4,15.8,29.92,NNE,19,1.0,1.0,18,0.00,,,0.00,WUHU216DAVISVP2,2013-05-04 07:23:00,
2013-05-04 00:28:00,59.9,16.2,29.92,NNE,20,1.0,2.0,18,0.00,,,0.00,WUHU216DAVISVP2,2013-05-04 07:28:00,
2013-05-04 00:33:00,60.1,16.4,29.92,NNE,20,1.0,3.0,18,0.00,,,0.00,WUHU216DAVISVP2,2013-05-04 07:33:00,
2013-05-04 00:38:00,59.9,16.2,29.91,NNE,19,1.0,2.0,18,0.00,,,0.00,WUHU216DAVISVP2,2013-05-04 07:38:00,
2013-05-04 00:43:00,59.7,17.3,29.91,NNE,20,1.0,2.0,19,0.00,,,0.00,WUHU216DAVISVP2,2013-05-04 07:43:00,
2013-05-04 00:48:00,59.4,17.0,29.91,NNE,20,1.0,2.0,19,0.00,,,0.00,WUHU216DAVISVP2,2013-05-04 07:48:00,
2013-05-04 00:53:00,59.1,16.8,29.91,NNE,20,1.0,2.0,19,0.00,,,0.00,WUHU216DAVISVP2,2013-05-04 07:53:00,
2013-05-04 00:58:00,58.9,17.8,29.91,North,0,0.0,0.0,20,0.00,,,0.00,WUHU216DAVISVP2,2013-05-04 07:58:00,
2013-05-04 01:03:00,59.1,16.8,29.91,North,0,0.0,0.0,19,0.00,,,0.00,WUHU216DAVISVP2,2013-05-04 08:03:00,
2013-05-04 01:08:00,59.4,17.0,29.91,North,0,0.0,0.0,19,0.00,,,0.00,WUHU216DAVISVP2,2013-05-04 08:08:00,
2013-05-04 01:13:00,58.8,17.7,29.91,NNE,19,2.0,2.0,20,0.00,,,0.00,WUHU216DAVISVP2,2013-05-04 08:13:00,
2013-05-04 01:18:00,57.5,17.8,29.90,NNE,19,1.0,2.0,21,0.00,,,0.00,WUHU216DAVISVP2,2013-05-04 08:18:00,
2013-05-04 01:23:00,56.8,17.2,29.90,NNE,18,2.0,3.0,21,0.00,,,0.00,WUHU216DAVISVP2,2013-05-04 08:23:00,
2013-05-04 01:28:00,56.0,16.5,29.90,North,9,2.0,3.0,21,0.00,,,0.00,WUHU216DAVISVP2,2013-05-04 08:28:00,
2013-05-04 01:34:00,55.9,17.5,29.90,North,359,1.0,1.0,22,0.00,,,0.00,WUHU216DAVISVP2,2013-05-04 08:34:00,
2013-05-04 01:39:00,56.3,17.8,29.90,North,355,1.0,1.0,22,0.00,,,0.00,WUHU216DAVISVP2,2013-05-04 08:39:00,
2013-05-04 01:44:00,56.3,16.8,29.89,North,0,0.0,0.0,21,0.00,,,0.00,WUHU216DAVISVP2,2013-05-04 08:44:00,
2013-05-04 01:49:00,56.5,16.9,29.89,North,0,0.0,0.0,21,0.00,,,0.00,WUHU216DAVISVP2,2013-05-04 08:49:00,
2013-05-04 01:54:00,56.7,17.1,29.89,North,0,0.0,0.0,21,0.00,,,0.00,WUHU216DAVISVP2,2013-05-04 08:54:00,
2013-05-04 01:59:00,56.7,17.1,29.89,North,0,0.0,0.0,21,0.00,,,0.00,WUHU216DAVISVP2,2013-05-04 08:59:00,
2013-05-04 02:04:00,56.3,17.8,29.89,North,0,0.0,0.0,22,0.00,,,0.00,WUHU216DAVISVP2,2013-05-04 09:04:00,
2013-05-04 02:09:00,56.6,17.0,29.89,North,0,0.0,0.0,21,0.00,,,0.00,WUHU216DAVISVP2,2013-05-04 09:09:00,
2013-05-04 02:14:00,57.1,17.4,29.88,North,0,0.0,0.0,21,0.00,,,0.00,WUHU216DAVISVP2,2013-05-04 09:14:00,
2013-05-04 02:19:00,57.0,17.3,29.88,North,0,0.0,0.0,21,0.00,,,0.00,WUHU216DAVISVP2,2013-05-04 09:19:00,
2013-05-04 02:24:00,57.2,17.5,29.88,North,0,0.0,0.0,21,0.00,,,0.00,WUHU216DAVISVP2,2013-05-04 09:24:00,
2013-05-04 02:29:00,56.2,17.7,29.88,North,0,0.0,0.0,22,0.00,,,0.00,WUHU216DAVISVP2,2013-05-04 09:29:00,
2013-05-04 02:34:00,55.0,17.7,29.88,North,350,2.0,2.0,23,0.00,,,0.00,WUHU216DAVISVP2,2013-05-04 09:34:00,
2013-05-04 02:39:00,54.5,17.3,29.88,North,350,1.0,2.0,23,0.00,,,0.00,WUHU216DAVISVP2,2013-05-04 09:39:00,
2013-05-04 02:44:00,55.1,17.8,29.88,North,0,0.0,0.0,23,0.00,,,0.00,WUHU216DAVISVP2,2013-05-04 09:44:00,
2013-05-04 02:49:00,55.3,18.0,29.88,North,350,1.0,2.0,23,0.00,,,0.00,WUHU216DAVISVP2,2013-05-04 09:49:00,
2013-05-04 02:55:00,53.7,16.6,29.88,North,352,2.0,3.0,23,0.00,,,0.00,WUHU216DAVISVP2,2013-05-04 09:55:00,
2013-05-04 03:00:00,52.4,17.4,29.88,North,355,2.0,3.0,25,0.00,,,0.00,WUHU216DAVISVP2,2013-05-04 10:00:00,
2013-05-04 03:05:00,51.5,16.7,29.88,North,355,2.0,2.0,25,0.00,,,0.00,WUHU216DAVISVP2,2013-05-04 10:05:00,
2013-05-04 03:10:00,51.3,16.5,29.88,North,355,2.0,3.0,25,0.00,,,0.00,WUHU216DAVISVP2,2013-05-04 10:10:00,
2013-05-04 03:15:00,50.8,17.0,29.87,North,355,2.0,3.0,26,0.00,,,0.00,WUHU216DAVISVP2,2013-05-04 10:15:00,
2013-05-04 03:20:00,50.5,16.7,29.87,North,355,2.0,3.0,26,0.00,,,0.00,WUHU216DAVISVP2,2013-05-04 10:20:00,
2013-05-04 03:25:00,50.5,16.7,29.88,North,355,1.0,2.0,26,0.00,,,0.00,WUHU216DAVISVP2,2013-05-04 10:25:00,
2013-05-04 03:30:00,50.4,16.6,29.88,North,355,1.0,1.0,26,0.00,,,0.00,WUHU216DAVISVP2,2013-05-04 10:30:00,
2013-05-04 03:35:00,50.7,16.9,29.88,North,355,1.0,2.0,26,0.00,,,0.00,WUHU216DAVISVP2,2013-05-04 10:35:00,
2013-05-04 03:40:00,50.6,16.8,29.88,North,355,1.0,2.0,26,0.00,,,0.00,WUHU216DAVISVP2,2013-05-04 10:40:00,
2013-05-04 03:45:00,50.1,16.4,29.88,North,355,2.0,3.0,26,0.00,,,0.00,WUHU216DAVISVP2,2013-05-04 10:45:00,
2013-05-04 03:50:00,49.5,15.8,29.88,North,355,2.0,3.0,26,0.00,,,0.00,WUHU216DAVISVP2,2013-05-04 10:50:00,
2013-05-04 03:55:00,49.5,16.7,29.87,North,355,2.0,3.0,27,0.00,,,0.00,WUHU216DAVISVP2,2013-05-04 10:55:00,
2013-05-04 04:01:00,49.4,16.6,29.87,North,355,2.0,3.0,27,0.00,,,0.00,WUHU216DAVISVP2,2013-05-04 11:01:00,
2013-05-04 04:06:00,48.7,16.0,29.87,North,355,2.0,3.0,27,0.00,,,0.00,WUHU216DAVISVP2,2013-05-04 11:06:00,
2013-05-04 04:11:00,48.6,16.7,29.87,North,355,2.0,3.0,28,0.00,,,0.00,WUHU216DAVISVP2,2013-05-04 11:11:00,
2013-05-04 04:16:00,49.0,16.3,29.87,North,355,2.0,3.0,27,0.00,,,0.00,WUHU216DAVISVP2,2013-05-04 11:16:00,
2013-05-04 04:21:00,48.7,16.0,29.87,North,355,2.0,3.0,27,0.00,,,0.00,WUHU216DAVISVP2,2013-05-04 11:21:00,
2013-05-04 04:26:00,48.9,16.2,29.87,North,355,2.0,2.0,27,0.00,,,0.00,WUHU216DAVISVP2,2013-05-04 11:26:00,
2013-05-04 04:31:00,49.3,16.5,29.87,North,355,2.0,2.0,27,0.00,,,0.00,WUHU216DAVISVP2,2013-05-04 11:31:00,
2013-05-04 04:36:00,49.5,16.7,29.86,North,355,2.0,2.0,27,0.00,,,0.00,WUHU216DAVISVP2,2013-05-04 11:36:00,
2013-05-04 04:41:00,49.7,16.9,29.87,North,354,2.0,2.0,27,0.00,,,0.00,WUHU216DAVISVP2,2013-05-04 11:41:00,
2013-05-04 04:46:00,50.1,16.4,29.87,NNW,348,1.0,2.0,26,0.00,,,0.00,WUHU216DAVISVP2,2013-05-04 11:46:00,
2013-05-04 04:51:00,50.3,16.5,29.87,NNW,348,1.0,3.0,26,0.00,,,0.00,WUHU216DAVISVP2,2013-05-04 11:51:00,
2013-05-04 04:56:00,50.3,16.5,29.87,NNW,348,2.0,3.0,26,0.00,,,0.00,WUHU216DAVISVP2,2013-05-04 11:56:00,
2013-05-04 05:01:00,50.0,16.3,29.87,NNW,348,2.0,3.0,26,0.00,,,0.00,WUHU216DAVISVP2,2013-05-04 12:01:00,
2013-05-04 05:06:00,50.0,17.1,29.87,NNW,348,2.0,3.0,27,0.00,,,0.00,WUHU216DAVISVP2,2013-05-04 12:06:00,
2013-05-04 05:11:00,50.1,17.2,29.87,North,349,2.0,3.0,27,0.00,,,0.00,WUHU216DAVISVP2,2013-05-04 12:11:00,
2013-05-04 05:17:00,50.1,17.2,29.87,North,350,1.0,2.0,27,0.00,,,0.00,WUHU216DAVISVP2,2013-05-04 12:17:00,
2013-05-04 05:22:00,49.7,16.9,29.87,North,350,1.0,2.0,27,0.00,,,0.00,WUHU216DAVISVP2,2013-05-04 12:22:00,
2013-05-04 05:27:00,49.0,17.1,29.87,North,350,2.0,4.0,28,0.00,,,0.00,WUHU216DAVISVP2,2013-05-04 12:27:00,
2013-05-04 05:32:00,48.6,16.7,29.87,North,350,2.0,3.0,28,0.00,,,0.00,WUHU216DAVISVP2,2013-05-04 12:32:00,
2013-05-04 05:37:00,48.8,16.9,29.87,North,350,1.0,3.0,28,0.00,,,0.00,WUHU216DAVISVP2,2013-05-04 12:37:00,
2013-05-04 05:42:00,49.2,17.3,29.88,North,350,2.0,3.0,28,0.00,,,0.00,WUHU216DAVISVP2,2013-05-04 12:42:00,
2013-05-04 05:47:00,49.2,17.3,29.88,North,350,2.0,3.0,28,0.00,,,0.00,WUHU216DAVISVP2,2013-05-04 12:47:00,
2013-05-04 05:52:00,49.7,16.9,29.88,North,350,2.0,3.0,27,0.00,,,0.00,WUHU216DAVISVP2,2013-05-04 12:52:00,
2013-05-04 05:57:00,50.3,17.4,29.88,North,350,1.0,2.0,27,0.00,,,0.00,WUHU216DAVISVP2,2013-05-04 12:57:00,
2013-05-04 06:02:00,51.0,18.0,29.88,North,350,1.0,2.0,27,0.00,,,0.00,WUHU216DAVISVP2,2013-05-04 13:02:00,
2013-05-04 06:07:00,51.7,17.7,29.88,North,0,0.0,0.0,26,0.00,,,0.00,WUHU216DAVISVP2,2013-05-04 13:07:00,
2013-05-04 06:13:00,51.8,17.8,29.88,North,0,0.0,0.0,26,0.00,,,0.00,WUHU216DAVISVP2,2013-05-04 13:13:00,
2013-05-04 06:18:00,52.5,17.5,29.88,NE,50,1.0,1.0,25,0.00,,,0.00,WUHU216DAVISVP2,2013-05-04 13:18:00,
2013-05-04 06:23:00,52.7,18.6,29.88,NE,47,1.0,2.0,26,0.00,,,0.00,WUHU216DAVISVP2,2013-05-04 13:23:00,
2013-05-04 06:28:00,52.9,18.8,29.88,North,0,0.0,0.0,26,0.00,,,0.00,WUHU216DAVISVP2,2013-05-04 13:28:00,
2013-05-04 06:33:00,53.7,19.4,29.89,North,0,0.0,0.0,26,0.00,,,0.00,WUHU216DAVISVP2,2013-05-04 13:33:00,
2013-05-04 06:38:00,55.4,20.0,29.89,North,0,0.0,0.0,25,0.00,,,0.00,WUHU216DAVISVP2,2013-05-04 13:38:00,
2013-05-04 06:43:00,57.6,20.9,29.89,NE,46,1.0,1.0,24,0.00,,,0.00,WUHU216DAVISVP2,2013-05-04 13:43:00,
2013-05-04 06:48:00,59.6,20.6,29.89,North,0,0.0,0.0,22,0.00,,,0.00,WUHU216DAVISVP2,2013-05-04 13:48:00,
2013-05-04 06:53:00,61.5,20.0,29.89,NW,311,1.0,1.0,20,0.00,,,0.00,WUHU216DAVISVP2,2013-05-04 13:53:00,
2013-05-04 06:58:00,63.0,18.8,29.89,NNE,27,1.0,2.0,18,0.00,,,0.00,WUHU216DAVISVP2,2013-05-04 13:58:00,
2013-05-04 07:03:00,63.9,18.2,29.89,East,93,1.0,3.0,17,0.00,,,0.00,WUHU216DAVISVP2,2013-05-04 14:03:00,
2013-05-04 07:08:00,64.4,17.2,29.89,ESE,111,2.0,5.0,16,0.00,,,0.00,WUHU216DAVISVP2,2013-05-04 14:08:00,
2013-05-04 07:13:00,64.6,17.3,29.89,ESE,115,3.0,5.0,16,0.00,,,0.00,WUHU216DAVISVP2,2013-05-04 14:13:00,
2013-05-04 07:18:00,64.7,17.4,29.89,SE,128,2.0,4.0,16,0.00,,,0.00,WUHU216DAVISVP2,2013-05-04 14:18:00,
2013-05-04 07:23:00,64.8,17.5,29.89,SE,140,2.0,3.0,16,0.00,,,0.00,WUHU216DAVISVP2,2013-05-04 14:23:00,
2013-05-04 07:29:00,65.1,17.7,29.89,SE,136,2.0,3.0,16,0.00,,,0.00,WUHU216DAVISVP2,2013-05-04 14:29:00,
2013-05-04 07:34:00,65.2,16.3,29.89,SE,129,2.0,5.0,15,0.00,,,0.00,WUHU216DAVISVP2,2013-05-04 14:34:00,
2013-05-04 07:39:00,65.3,17.9,29.89,ESE,113,2.0,5.0,16,0.00,,,0.00,WUHU216DAVISVP2,2013-05-04 14:39:00,
2013-05-04 07:44:00,65.6,16.6,29.89,SE,124,3.0,5.0,15,0.00,,,0.00,WUHU216DAVISVP2,2013-05-04 14:44:00,
2013-05-04 07:49:00,65.5,16.5,29.89,SE,139,3.0,5.0,15,0.00,,,0.00,WUHU216DAVISVP2,2013-05-04 14:49:00,
2013-05-04 07:54:00,65.5,16.5,29.89,SE,146,3.0,7.0,15,0.00,,,0.00,WUHU216DAVISVP2,2013-05-04 14:54:00,
2013-05-04 07:59:00,65.4,16.5,29.89,SE,137,3.0,6.0,15,0.00,,,0.00,WUHU216DAVISVP2,2013-05-04 14:59:00,
2013-05-04 08:04:00,65.2,16.3,29.89,SSE,156,3.0,5.0,15,0.00,,,0.00,WUHU216DAVISVP2,2013-05-04 15:04:00,
2013-05-04 08:09:00,65.3,17.9,29.88,SSE,163,2.0,4.0,16,0.00,,,0.00,WUHU216DAVISVP2,2013-05-04 15:09:00,
2013-05-04 08:14:00,65.5,18.0,29.88,ESE,104,3.0,6.0,16,0.00,,,0.00,WUHU216DAVISVP2,2013-05-04 15:14:00,
2013-05-04 08:19:00,65.8,18.3,29.89,ESE,121,2.0,5.0,16,0.00,,,0.00,WUHU216DAVISVP2,2013-05-04 15:19:00,
2013-05-04 08:24:00,65.8,16.8,29.88,ESE,115,4.0,7.0,15,0.00,,,0.00,WUHU216DAVISVP2,2013-05-04 15:24:00,
2013-05-04 08:29:00,65.9,16.9,29.88,SE,126,4.0,7.0,15,0.00,,,0.00,WUHU216DAVISVP2,2013-05-04 15:29:00,
2013-05-04 08:34:00,66.1,17.0,29.88,SE,124,4.0,9.0,15,0.00,,,0.00,WUHU216DAVISVP2,2013-05-04 15:34:00,
2013-05-04 08:39:00,66.5,17.3,29.88,SE,129,4.0,8.0,15,0.00,,,0.00,WUHU216DAVISVP2,2013-05-04 15:39:00,
2013-05-04 08:44:00,66.7,17.5,29.88,SE,132,4.0,7.0,15,0.00,,,0.00,WUHU216DAVISVP2,2013-05-04 15:44:00,
2013-05-04 08:50:00,67.1,17.8,29.88,ESE,116,4.0,7.0,15,0.00,,,0.00,WUHU216DAVISVP2,2013-05-04 15:50:00,
2013-05-04 08:55:00,67.1,17.8,29.88,ESE,118,3.0,7.0,15,0.00,,,0.00,WUHU216DAVISVP2,2013-05-04 15:55:00,
2013-05-04 09:00:00,67.3,18.0,29.88,ESE,121,4.0,8.0,15,0.00,,,0.00,WUHU216DAVISVP2,2013-05-04 16:00:00,
2013-05-04 09:05:00,67.6,16.6,29.88,ESE,112,4.0,8.0,14,0.00,,,0.00,WUHU216DAVISVP2,2013-05-04 16:05:00,
2013-05-04 09:10:00,68.3,17.1,29.88,SE,128,5.0,8.0,14,0.00,,,0.00,WUHU216DAVISVP2,2013-05-04 16:10:00,
2013-05-04 09:15:00,68.5,17.3,29.88,ESE,106,5.0,9.0,14,0.00,,,0.00,WUHU216DAVISVP2,2013-05-04 16:15:00,
2013-05-04 09:20:00,68.7,17.5,29.88,ESE,121,4.0,9.0,14,0.00,,,0.00,WUHU216DAVISVP2,2013-05-04 16:20:00,
2013-05-04 09:25:00,69.2,17.9,29.88,SSE,163,3.0,6.0,14,0.00,,,0.00,WUHU216DAVISVP2,2013-05-04 16:25:00,
2013-05-04 09:30:00,69.2,17.9,29.88,SE,144,4.0,7.0,14,0.00,,,0.00,WUHU216DAVISVP2,2013-05-04 16:30:00,
2013-05-04 09:35:00,69.5,16.3,29.88,SE,142,3.0,7.0,13,0.00,,,0.00,WUHU216DAVISVP2,2013-05-04 16:35:00,
2013-05-04 09:40:00,69.9,18.4,29.88,SE,141,3.0,5.0,14,0.00,,,0.00,WUHU216DAVISVP2,2013-05-04 16:40:00,
2013-05-04 09:45:00,70.4,17.1,29.88,SSE,157,3.0,6.0,13,0.00,,,0.00,WUHU216DAVISVP2,2013-05-04 16:45:00,
2013-05-04 09:51:00,71.3,17.8,29.88,SSE,161,2.0,5.0,13,0.00,,,0.00,WUHU216DAVISVP2,2013-05-04 16:51:00,
2013-05-04 09:56:00,72.0,16.4,29.88,South,169,3.0,6.0,12,0.00,,,0.00,WUHU216DAVISVP2,2013-05-04 16:56:00,
2013-05-04 10:01:00,72.5,16.8,29.88,SE,128,2.0,6.0,12,0.00,,,0.00,WUHU216DAVISVP2,2013-05-04 17:01:00,
2013-05-04 10:06:00,73.1,17.3,29.88,SSE,158,4.0,12.0,12,0.00,,,0.00,WUHU216DAVISVP2,2013-05-04 17:06:00,
2013-05-04 10:11:00,73.1,17.3,29.88,SSE,154,4.0,8.0,12,0.00,,,0.00,WUHU216DAVISVP2,2013-05-04 17:11:00,
2013-05-04 10:16:00,73.3,17.4,29.87,SSE,163,4.0,7.0,12,0.00,,,0.00,WUHU216DAVISVP2,2013-05-04 17:16:00,
2013-05-04 10:21:00,73.5,17.6,29.87,SE,142,3.0,9.0,12,0.00,,,0.00,WUHU216DAVISVP2,2013-05-04 17:21:00,
2013-05-04 10:26:00,74.2,18.1,29.87,SSE,156,3.0,6.0,12,0.00,,,0.00,WUHU216DAVISVP2,2013-05-04 17:26:00,
2013-05-04 10:31:00,74.6,18.4,29.87,SSE,161,3.0,7.0,12,0.00,,,0.00,WUHU216DAVISVP2,2013-05-04 17:31:00,
2013-05-04 10:36:00,74.8,18.6,29.87,SE,142,6.0,11.0,12,0.00,,,0.00,WUHU216DAVISVP2,2013-05-04 17:36:00,
2013-05-04 10:41:00,75.3,19.0,29.86,SSE,156,4.0,7.0,12,0.00,,,0.00,WUHU216DAVISVP2,2013-05-04 17:41:00,
2013-05-04 10:46:00,75.7,19.3,29.86,South,173,5.0,9.0,12,0.00,,,0.00,WUHU216DAVISVP2,2013-05-04 17:46:00,
2013-05-04 10:51:00,75.8,19.4,29.86,SSE,155,6.0,14.0,12,0.00,,,0.00,WUHU216DAVISVP2,2013-05-04 17:51:00,
2013-05-04 10:56:00,75.6,21.1,29.86,SE,127,6.0,10.0,13,0.00,,,0.00,WUHU216DAVISVP2,2013-05-04 17:56:00,
2013-05-04 11:01:00,76.1,19.6,29.85,SSE,150,7.0,12.0,12,0.00,,,0.00,WUHU216DAVISVP2,2013-05-04 18:01:00,
2013-05-04 11:07:00,76.0,21.5,29.85,SSE,163,8.0,13.0,13,0.00,,,0.00,WUHU216DAVISVP2,2013-05-04 18:07:00,
2013-05-04 11:12:00,76.7,20.1,29.85,South,191,8.0,18.0,12,0.00,,,0.00,WUHU216DAVISVP2,2013-05-04 18:12:00,
2013-05-04 11:17:00,76.7,22.0,29.85,SSW,194,8.0,15.0,13,0.00,,,0.00,WUHU216DAVISVP2,2013-05-04 18:17:00,
2013-05-04 11:22:00,76.8,20.1,29.84,South,191,4.0,11.0,12,0.00,,,0.00,WUHU216DAVISVP2,2013-05-04 18:22:00,
2013-05-04 11:27:00,77.6,20.8,29.85,SW,215,10.0,16.0,12,0.00,,,0.00,WUHU216DAVISVP2,2013-05-04 18:27:00,
2013-05-04 11:32:00,77.7,20.8,29.84,WSW,242,10.0,19.0,12,0.00,,,0.00,WUHU216DAVISVP2,2013-05-04 18:32:00,
2013-05-04 11:37:00,77.9,18.9,29.84,WSW,244,7.0,12.0,11,0.00,,,0.00,WUHU216DAVISVP2,2013-05-04 18:37:00,
2013-05-04 11:42:00,78.4,21.4,29.84,SSW,212,8.0,16.0,12,0.00,,,0.00,WUHU216DAVISVP2,2013-05-04 18:42:00,
2013-05-04 11:47:00,78.0,19.0,29.84,WSW,244,8.0,13.0,11,0.00,,,0.00,WUHU216DAVISVP2,2013-05-04 18:47:00,
2013-05-04 11:52:00,77.9,18.9,29.83,SW,232,6.0,17.0,11,0.00,,,0.00,WUHU216DAVISVP2,2013-05-04 18:52:00,
2013-05-04 11:57:00,78.2,19.1,29.83,SSW,201,8.0,18.0,11,0.00,,,0.00,WUHU216DAVISVP2,2013-05-04 18:57:00,
2013-05-04 12:02:00,78.4,19.3,29.83,SSW,206,9.0,17.0,11,0.00,,,0.00,WUHU216DAVISVP2,2013-05-04 19:02:00,
2013-05-04 12:07:00,78.6,19.4,29.83,SSW,201,9.0,20.0,11,0.00,,,0.00,WUHU216DAVISVP2,2013-05-04 19:07:00,
2013-05-04 12:12:00,79.0,19.7,29.82,SSW,194,8.0,17.0,11,0.00,,,0.00,WUHU216DAVISVP2,2013-05-04 19:12:00,
2013-05-04 12:17:00,78.9,19.7,29.82,SSW,193,7.0,14.0,11,0.00,,,0.00,WUHU216DAVISVP2,2013-05-04 19:17:00,
2013-05-04 12:22:00,78.8,19.6,29.82,SW,234,11.0,18.0,11,0.00,,,0.00,WUHU216DAVISVP2,2013-05-04 19:22:00,
2013-05-04 12:28:00,79.1,17.5,29.82,SSW,212,9.0,15.0,10,0.00,,,0.00,WUHU216DAVISVP2,2013-05-04 19:28:00,
2013-05-04 12:33:00,79.2,17.6,29.82,SSW,202,7.0,12.0,10,0.00,,,0.00,WUHU216DAVISVP2,2013-05-04 19:33:00,
2013-05-04 12:38:00,79.2,17.6,29.82,SW,215,4.0,9.0,10,0.00,,,0.00,WUHU216DAVISVP2,2013-05-04 19:38:00,
2013-05-04 12:43:00,79.0,19.7,29.81,SSW,207,3.0,7.0,11,0.00,,,0.00,WUHU216DAVISVP2,2013-05-04 19:43:00,
2013-05-04 12:48:00,79.5,20.1,29.81,SW,223,9.0,16.0,11,0.00,,,0.00,WUHU216DAVISVP2,2013-05-04 19:48:00,
2013-05-04 12:53:00,79.4,20.1,29.81,SSW,202,9.0,15.0,11,0.00,,,0.00,WUHU216DAVISVP2,2013-05-04 19:53:00,
2013-05-04 12:58:00,79.9,18.1,29.81,South,191,10.0,17.0,10,0.00,,,0.00,WUHU216DAVISVP2,2013-05-04 19:58:00,
2013-05-04 13:03:00,79.3,17.7,29.80,SSW,206,8.0,13.0,10,0.00,,,0.00,WUHU216DAVISVP2,2013-05-04 20:03:00,
2013-05-04 13:08:00,79.2,19.9,29.80,SSW,200,9.0,17.0,11,0.00,,,0.00,WUHU216DAVISVP2,2013-05-04 20:08:00,
2013-05-04 13:13:00,79.9,20.4,29.80,WSW,238,10.0,17.0,11,0.00,,,0.00,WUHU216DAVISVP2,2013-05-04 20:13:00,
2013-05-04 13:18:00,80.0,20.5,29.80,SW,222,7.0,13.0,11,0.00,,,0.00,WUHU216DAVISVP2,2013-05-04 20:18:00,
2013-05-04 13:23:00,79.7,20.3,29.80,SSW,202,8.0,16.0,11,0.00,,,0.00,WUHU216DAVISVP2,2013-05-04 20:23:00,
2013-05-04 13:28:00,79.4,20.1,29.79,South,172,9.0,19.0,11,0.00,,,0.00,WUHU216DAVISVP2,2013-05-04 20:28:00,
2013-05-04 13:33:00,80.4,20.8,29.79,SSW,192,9.0,17.0,11,0.00,,,0.00,WUHU216DAVISVP2,2013-05-04 20:33:00,
2013-05-04 13:38:00,80.3,20.7,29.79,South,187,11.0,18.0,11,0.00,,,0.00,WUHU216DAVISVP2,2013-05-04 20:38:00,
2013-05-04 13:44:00,80.3,20.7,29.79,South,187,10.0,16.0,11,0.00,,,0.00,WUHU216DAVISVP2,2013-05-04 20:44:00,
2013-05-04 13:49:00,80.2,22.8,29.79,SSW,193,8.0,18.0,12,0.00,,,0.00,WUHU216DAVISVP2,2013-05-04 20:49:00,
2013-05-04 13:54:00,80.5,20.9,29.79,SSE,167,4.0,9.0,11,0.00,,,0.00,WUHU216DAVISVP2,2013-05-04 20:54:00,
2013-05-04 13:59:00,80.3,20.7,29.78,SSE,162,7.0,11.0,11,0.00,,,0.00,WUHU216DAVISVP2,2013-05-04 20:59:00,
2013-05-04 14:04:00,80.0,20.5,29.78,SSE,157,7.0,13.0,11,0.00,,,0.00,WUHU216DAVISVP2,2013-05-04 21:04:00,
2013-05-04 14:09:00,79.9,24.5,29.78,SW,220,10.0,19.0,13,0.00,,,0.00,WUHU216DAVISVP2,2013-05-04 21:09:00,
2013-05-04 14:14:00,80.2,24.8,29.78,WSW,239,8.0,14.0,13,0.00,,,0.00,WUHU216DAVISVP2,2013-05-04 21:14:00,
2013-05-04 14:19:00,80.5,25.0,29.78,South,182,8.0,13.0,13,0.00,,,0.00,WUHU216DAVISVP2,2013-05-04 21:19:00,
2013-05-04 14:24:00,80.3,22.9,29.78,South,179,8.0,15.0,12,0.00,,,0.00,WUHU216DAVISVP2,2013-05-04 21:24:00,
2013-05-04 14:29:00,79.8,24.4,29.77,SSW,195,8.0,17.0,13,0.00,,,0.00,WUHU216DAVISVP2,2013-05-04 21:29:00,
2013-05-04 14:34:00,80.5,25.0,29.77,SW,216,9.0,16.0,13,0.00,,,0.00,WUHU216DAVISVP2,2013-05-04 21:34:00,
2013-05-04 14:39:00,81.1,23.5,29.77,SSW,210,11.0,16.0,12,0.00,,,0.00,WUHU216DAVISVP2,2013-05-04 21:39:00,
2013-05-04 14:44:00,80.5,23.0,29.77,South,179,8.0,13.0,12,0.00,,,0.00,WUHU216DAVISVP2,2013-05-04 21:44:00,
2013-05-04 14:49:00,80.4,22.9,29.77,SW,235,8.0,14.0,12,0.00,,,0.00,WUHU216DAVISVP2,2013-05-04 21:49:00,
2013-05-04 14:54:00,80.8,23.3,29.76,SSW,193,10.0,19.0,12,0.00,,,0.00,WUHU216DAVISVP2,2013-05-04 21:54:00,
2013-05-04 14:59:00,80.8,25.2,29.77,SW,216,8.0,16.0,13,0.00,,,0.00,WUHU216DAVISVP2,2013-05-04 21:59:00,
2013-05-04 15:05:00,80.5,25.0,29.76,WSW,246,9.0,16.0,13,0.00,,,0.00,WUHU216DAVISVP2,2013-05-04 22:05:00,
2013-05-04 15:10:00,80.0,24.6,29.76,South,180,6.0,11.0,13,0.00,,,0.00,WUHU216DAVISVP2,2013-05-04 22:10:00,
2013-05-04 15:15:00,79.9,24.5,29.76,South,191,7.0,11.0,13,0.00,,,0.00,WUHU216DAVISVP2,2013-05-04 22:15:00,
2013-05-04 15:20:00,80.6,23.1,29.75,South,189,9.0,15.0,12,0.00,,,0.00,WUHU216DAVISVP2,2013-05-04 22:20:00,
2013-05-04 15:25:00,80.7,23.2,29.75,SW,230,10.0,19.0,12,0.00,,,0.00,WUHU216DAVISVP2,2013-05-04 22:25:00,
2013-05-04 15:30:00,80.2,24.8,29.75,SSW,212,10.0,17.0,13,0.00,,,0.00,WUHU216DAVISVP2,2013-05-04 22:30:00,
2013-05-04 15:35:00,80.0,24.6,29.75,South,183,8.0,15.0,13,0.00,,,0.00,WUHU216DAVISVP2,2013-05-04 22:35:00,
2013-05-04 15:40:00,80.0,24.6,29.75,South,186,8.0,13.0,13,0.00,,,0.00,WUHU216DAVISVP2,2013-05-04 22:40:00,
2013-05-04 15:45:00,80.1,24.7,29.76,SW,220,9.0,17.0,13,0.00,,,0.00,WUHU216DAVISVP2,2013-05-04 22:45:00,
2013-05-04 15:50:00,80.5,25.0,29.75,SW,229,9.0,18.0,13,0.00,,,0.00,WUHU216DAVISVP2,2013-05-04 22:50:00,
2013-05-04 15:55:00,80.0,24.6,29.75,SW,232,10.0,19.0,13,0.00,,,0.00,WUHU216DAVISVP2,2013-05-04 22:55:00,
2013-05-04 16:00:00,79.7,24.4,29.75,WSW,245,8.0,13.0,13,0.00,,,0.00,WUHU216DAVISVP2,2013-05-04 23:00:00,
2013-05-04 16:06:00,79.8,24.4,29.75,WSW,238,9.0,20.0,13,0.00,,,0.00,WUHU216DAVISVP2,2013-05-04 23:06:00,
2013-05-04 16:11:00,79.8,24.4,29.75,WSW,247,10.0,19.0,13,0.00,,,0.00,WUHU216DAVISVP2,2013-05-04 23:11:00,
2013-05-04 16:16:00,79.7,24.4,29.75,SW,221,10.0,17.0,13,0.00,,,0.00,WUHU216DAVISVP2,2013-05-04 23:16:00,
2013-05-04 16:21:00,79.6,26.1,29.75,SW,218,6.0,12.0,14,0.00,,,0.00,WUHU216DAVISVP2,2013-05-04 23:21:00,
2013-05-04 16:26:00,80.0,24.6,29.75,SW,235,7.0,15.0,13,0.00,,,0.00,WUHU216DAVISVP2,2013-05-04 23:26:00,
2013-05-04 16:31:00,80.2,26.6,29.75,SW,225,7.0,14.0,14,0.00,,,0.00,WUHU216DAVISVP2,2013-05-04 23:31:00,
2013-05-04 16:36:00,79.7,24.4,29.75,SW,227,8.0,12.0,13,0.00,,,0.00,WUHU216DAVISVP2,2013-05-04 23:36:00,
2013-05-04 16:41:00,79.4,25.9,29.75,SW,225,9.0,15.0,14,0.00,,,0.00,WUHU216DAVISVP2,2013-05-04 23:41:00,
2013-05-04 16:46:00,79.0,27.3,29.75,SSW,206,9.0,15.0,15,0.00,,,0.00,WUHU216DAVISVP2,2013-05-04 23:46:00,
2013-05-04 16:51:00,78.8,27.2,29.75,SSW,202,8.0,14.0,15,0.00,,,0.00,WUHU216DAVISVP2,2013-05-04 23:51:00,
2013-05-04 16:56:00,78.4,26.9,29.75,SW,217,9.0,15.0,15,0.00,,,0.00,WUHU216DAVISVP2,2013-05-04 23:56:00,
2013-05-04 17:01:00,78.5,26.9,29.75,SSW,202,9.0,14.0,15,0.00,,,0.00,WUHU216DAVISVP2,2013-05-05 00:01:00,
2013-05-04 17:06:00,78.2,26.7,29.75,South,190,10.0,18.0,15,0.00,,,0.00,WUHU216DAVISVP2,2013-05-05 00:06:00,
2013-05-04 17:12:00,78.1,26.6,29.75,SSW,204,10.0,18.0,15,0.00,,,0.00,WUHU216DAVISVP2,2013-05-05 00:12:00,
2013-05-04 17:17:00,77.7,26.3,29.75,SSW,213,9.0,16.0,15,0.00,,,0.00,WUHU216DAVISVP2,2013-05-05 00:17:00,
2013-05-04 17:22:00,77.4,24.4,29.75,SW,229,10.0,17.0,14,0.00,,,0.00,WUHU216DAVISVP2,2013-05-05 00:22:00,
2013-05-04 17:27:00,77.3,24.3,29.76,WSW,244,8.0,13.0,14,0.00,,,0.00,WUHU216DAVISVP2,2013-05-05 00:27:00,
2013-05-04 17:32:00,77.2,25.9,29.75,SW,214,8.0,16.0,15,0.00,,,0.00,WUHU216DAVISVP2,2013-05-05 00:32:00,
2013-05-04 17:37:00,77.0,25.7,29.75,SSW,213,8.0,13.0,15,0.00,,,0.00,WUHU216DAVISVP2,2013-05-05 00:37:00,
2013-05-04 17:42:00,76.9,25.7,29.75,SSW,213,8.0,16.0,15,0.00,,,0.00,WUHU216DAVISVP2,2013-05-05 00:42:00,
2013-05-04 17:47:00,76.5,25.3,29.75,SW,225,9.0,15.0,15,0.00,,,0.00,WUHU216DAVISVP2,2013-05-05 00:47:00,
2013-05-04 17:52:00,76.3,25.2,29.76,SSW,194,9.0,13.0,15,0.00,,,0.00,WUHU216DAVISVP2,2013-05-05 00:52:00,
2013-05-04 17:57:00,76.0,24.9,29.76,SW,215,7.0,12.0,15,0.00,,,0.00,WUHU216DAVISVP2,2013-05-05 00:57:00,
2013-05-04 18:02:00,75.7,26.3,29.76,SSW,203,10.0,16.0,16,0.00,,,0.00,WUHU216DAVISVP2,2013-05-05 01:02:00,
2013-05-04 18:07:00,75.3,26.0,29.76,SSW,199,9.0,13.0,16,0.00,,,0.00,WUHU216DAVISVP2,2013-05-05 01:07:00,
2013-05-04 18:12:00,75.0,27.2,29.76,SSW,206,7.0,12.0,17,0.00,,,0.00,WUHU216DAVISVP2,2013-05-05 01:12:00,
2013-05-04 18:17:00,74.7,26.9,29.76,SSW,209,8.0,17.0,17,0.00,,,0.00,WUHU216DAVISVP2,2013-05-05 01:17:00,
2013-05-04 18:22:00,74.3,28.0,29.76,SSW,199,8.0,13.0,18,0.00,,,0.00,WUHU216DAVISVP2,2013-05-05 01:22:00,
2013-05-04 18:28:00,73.9,26.3,29.76,SSW,202,9.0,17.0,17,0.00,,,0.00,WUHU216DAVISVP2,2013-05-05 01:28:00,
2013-05-04 18:33:00,73.6,27.4,29.77,SSW,200,9.0,16.0,18,0.00,,,0.00,WUHU216DAVISVP2,2013-05-05 01:33:00,
2013-05-04 18:38:00,73.2,27.1,29.77,SSW,205,6.0,11.0,18,0.00,,,0.00,WUHU216DAVISVP2,2013-05-05 01:38:00,
2013-05-04 18:43:00,72.8,28.1,29.77,SSW,204,6.0,11.0,19,0.00,,,0.00,WUHU216DAVISVP2,2013-05-05 01:43:00,
2013-05-04 18:48:00,72.4,26.5,29.77,SSW,201,7.0,12.0,18,0.00,,,0.00,WUHU216DAVISVP2,2013-05-05 01:48:00,
2013-05-04 18:53:00,72.1,27.5,29.77,SSW,208,8.0,13.0,19,0.00,,,0.00,WUHU216DAVISVP2,2013-05-05 01:53:00,
2013-05-04 18:58:00,71.8,27.3,29.77,SSW,210,7.0,14.0,19,0.00,,,0.00,WUHU216DAVISVP2,2013-05-05 01:58:00,
2013-05-04 19:03:00,71.5,27.0,29.77,SSW,207,7.0,13.0,19,0.00,,,0.00,WUHU216DAVISVP2,2013-05-05 02:03:00,
2013-05-04 19:08:00,71.2,26.8,29.78,SSW,207,7.0,14.0,19,0.00,,,0.00,WUHU216DAVISVP2,2013-05-05 02:08:00,
2013-05-04 19:13:00,71.0,26.6,29.78,SSW,211,7.0,12.0,19,0.00,,,0.00,WUHU216DAVISVP2,2013-05-05 02:13:00,
2013-05-04 19:18:00,70.7,27.6,29.78,SSW,206,5.0,11.0,20,0.00,,,0.00,WUHU216DAVISVP2,2013-05-05 02:18:00,
2013-05-04 19:23:00,70.3,27.3,29.78,SSW,205,6.0,11.0,20,0.00,,,0.00,WUHU216DAVISVP2,2013-05-05 02:23:00,
2013-05-04 19:28:00,70.1,27.1,29.78,SSW,212,6.0,8.0,20,0.00,,,0.00,WUHU216DAVISVP2,2013-05-05 02:28:00,
2013-05-04 19:33:00,69.9,26.9,29.79,SSW,207,5.0,10.0,20,0.00,,,0.00,WUHU216DAVISVP2,2013-05-05 02:33:00,
2013-05-04 19:38:00,69.8,28.0,29.79,SSW,211,7.0,12.0,21,0.00,,,0.00,WUHU216DAVISVP2,2013-05-05 02:38:00,
2013-05-04 19:43:00,69.8,28.0,29.79,SW,219,6.0,9.0,21,0.00,,,0.00,WUHU216DAVISVP2,2013-05-05 02:43:00,
2013-05-04 19:49:00,69.4,27.7,29.79,WSW,238,4.0,9.0,21,0.00,,,0.00,WUHU216DAVISVP2,2013-05-05 02:49:00,
2013-05-04 19:54:00,69.0,27.4,29.80,WSW,240,3.0,8.0,21,0.00,,,0.00,WUHU216DAVISVP2,2013-05-05 02:54:00,
2013-05-04 19:59:00,68.4,28.0,29.80,WSW,242,3.0,7.0,22,0.00,,,0.00,WUHU216DAVISVP2,2013-05-05 02:59:00,
2013-05-04 20:04:00,68.1,27.7,29.80,WSW,240,3.0,7.0,22,0.00,,,0.00,WUHU216DAVISVP2,2013-05-05 03:04:00,
2013-05-04 20:09:00,67.7,28.5,29.80,SW,225,2.0,5.0,23,0.00,,,0.00,WUHU216DAVISVP2,2013-05-05 03:09:00,
2013-05-04 20:14:00,67.3,28.1,29.80,SW,234,2.0,3.0,23,0.00,,,0.00,WUHU216DAVISVP2,2013-05-05 03:14:00,
2013-05-04 20:19:00,66.9,28.8,29.81,SW,227,2.0,5.0,24,0.00,,,0.00,WUHU216DAVISVP2,2013-05-05 03:19:00,
2013-05-04 20:24:00,66.8,28.7,29.81,SW,223,2.0,6.0,24,0.00,,,0.00,WUHU216DAVISVP2,2013-05-05 03:24:00,
2013-05-04 20:29:00,66.9,28.8,29.81,SW,224,3.0,8.0,24,0.00,,,0.00,WUHU216DAVISVP2,2013-05-05 03:29:00,
2013-05-04 20:34:00,67.0,28.9,29.81,SW,234,3.0,7.0,24,0.00,,,0.00,WUHU216DAVISVP2,2013-05-05 03:34:00,
2013-05-04 20:39:00,66.9,29.8,29.82,SW,235,3.0,5.0,25,0.00,,,0.00,WUHU216DAVISVP2,2013-05-05 03:39:00,
2013-05-04 20:44:00,66.9,30.7,29.82,SW,227,4.0,8.0,26,0.00,,,0.00,WUHU216DAVISVP2,2013-05-05 03:44:00,
2013-05-04 20:49:00,67.2,31.0,29.82,SW,227,4.0,7.0,26,0.00,,,0.00,WUHU216DAVISVP2,2013-05-05 03:49:00,
2013-05-04 20:54:00,67.2,31.9,29.82,SW,227,5.0,8.0,27,0.00,,,0.00,WUHU216DAVISVP2,2013-05-05 03:54:00,
2013-05-04 20:59:00,67.2,31.9,29.82,SW,226,4.0,8.0,27,0.00,,,0.00,WUHU216DAVISVP2,2013-05-05 03:59:00,
2013-05-04 21:04:00,67.1,31.8,29.82,SW,220,5.0,8.0,27,0.00,,,0.00,WUHU216DAVISVP2,2013-05-05 04:04:00,
2013-05-04 21:10:00,67.0,31.7,29.82,SW,217,5.0,11.0,27,0.00,,,0.00,WUHU216DAVISVP2,2013-05-05 04:10:00,
2013-05-04 21:15:00,66.8,32.5,29.82,SW,222,4.0,8.0,28,0.00,,,0.00,WUHU216DAVISVP2,2013-05-05 04:15:00,
2013-05-04 21:20:00,66.3,32.0,29.83,SW,214,3.0,5.0,28,0.00,,,0.00,WUHU216DAVISVP2,2013-05-05 04:20:00,
2013-05-04 21:25:00,66.0,31.8,29.83,SW,216,3.0,6.0,28,0.00,,,0.00,WUHU216DAVISVP2,2013-05-05 04:25:00,
2013-05-04 21:30:00,65.6,32.3,29.83,SSW,207,3.0,5.0,29,0.00,,,0.00,WUHU216DAVISVP2,2013-05-05 04:30:00,
2013-05-04 21:35:00,65.1,31.9,29.84,SW,215,2.0,5.0,29,0.00,,,0.00,WUHU216DAVISVP2,2013-05-05 04:35:00,
2013-05-04 21:40:00,64.7,31.5,29.84,SW,214,3.0,6.0,29,0.00,,,0.00,WUHU216DAVISVP2,2013-05-05 04:40:00,
2013-05-04 21:45:00,64.6,31.4,29.84,SSW,212,4.0,7.0,29,0.00,,,0.00,WUHU216DAVISVP2,2013-05-05 04:45:00,
2013-05-04 21:50:00,64.8,30.7,29.84,SSW,213,5.0,9.0,28,0.00,,,0.00,WUHU216DAVISVP2,2013-05-05 04:50:00,
2013-05-04 21:55:00,65.0,30.9,29.84,SSW,213,4.0,7.0,28,0.00,,,0.00,WUHU216DAVISVP2,2013-05-05 04:55:00,
2013-05-04 22:00:00,65.0,30.9,29.84,SW,214,4.0,7.0,28,0.00,,,0.00,WUHU216DAVISVP2,2013-05-05 05:00:00,
2013-05-04 22:05:00,65.0,30.9,29.84,SSW,209,5.0,7.0,28,0.00,,,0.00,WUHU216DAVISVP2,2013-05-05 05:05:00,
2013-05-04 22:11:00,64.8,30.7,29.84,SW,215,4.0,7.0,28,0.00,,,0.00,WUHU216DAVISVP2,2013-05-05 05:11:00,
2013-05-04 22:16:00,64.6,30.6,29.85,SW,218,5.0,8.0,28,0.00,,,0.00,WUHU216DAVISVP2,2013-05-05 05:16:00,
2013-05-04 22:21:00,64.7,30.7,29.85,SW,215,5.0,8.0,28,0.00,,,0.00,WUHU216DAVISVP2,2013-05-05 05:21:00,
2013-05-04 22:26:00,64.8,30.7,29.85,SW,214,5.0,8.0,28,0.00,,,0.00,WUHU216DAVISVP2,2013-05-05 05:26:00,
2013-05-04 22:31:00,64.7,30.7,29.85,SSW,208,4.0,7.0,28,0.00,,,0.00,WUHU216DAVISVP2,2013-05-05 05:31:00,
2013-05-04 22:36:00,64.5,30.5,29.85,SSW,200,4.0,6.0,28,0.00,,,0.00,WUHU216DAVISVP2,2013-05-05 05:36:00,
2013-05-04 22:41:00,64.3,30.3,29.85,SSW,210,4.0,7.0,28,0.00,,,0.00,WUHU216DAVISVP2,2013-05-05 05:41:00,
2013-05-04 22:46:00,64.2,30.2,29.85,SSW,207,5.0,8.0,28,0.00,,,0.00,WUHU216DAVISVP2,2013-05-05 05:46:00,
2013-05-04 22:51:00,64.2,30.2,29.85,SSW,202,5.0,12.0,28,0.00,,,0.00,WUHU216DAVISVP2,2013-05-05 05:51:00,
2013-05-04 22:56:00,64.1,30.1,29.85,SSW,205,5.0,7.0,28,0.00,,,0.00,WUHU216DAVISVP2,2013-05-05 05:56:00,
2013-05-04 23:02:00,63.9,30.0,29.86,SSW,205,5.0,8.0,28,0.00,,,0.00,WUHU216DAVISVP2,2013-05-05 06:02:00,
2013-05-04 23:07:00,63.6,30.6,29.86,SSW,208,4.0,7.0,29,0.00,,,0.00,WUHU216DAVISVP2,2013-05-05 06:07:00,
2013-05-04 23:12:00,63.6,30.6,29.86,SSW,203,5.0,8.0,29,0.00,,,0.00,WUHU216DAVISVP2,2013-05-05 06:12:00,
2013-05-04 23:17:00,63.5,29.6,29.86,SSW,205,4.0,7.0,28,0.00,,,0.00,WUHU216DAVISVP2,2013-05-05 06:17:00,
2013-05-04 23:22:00,63.4,29.5,29.86,SSW,204,4.0,8.0,28,0.00,,,0.00,WUHU216DAVISVP2,2013-05-05 06:22:00,
2013-05-04 23:27:00,63.6,29.7,29.86,SSW,199,6.0,9.0,28,0.00,,,0.00,WUHU216DAVISVP2,2013-05-05 06:27:00,
2013-05-04 23:32:00,63.9,30.0,29.86,SSW,196,6.0,10.0,28,0.00,,,0.00,WUHU216DAVISVP2,2013-05-05 06:32:00,
2013-05-04 23:37:00,63.8,29.0,29.86,SSW,207,6.0,9.0,27,0.00,,,0.00,WUHU216DAVISVP2,2013-05-05 06:37:00,
2013-05-04 23:42:00,63.9,29.1,29.86,SW,216,5.0,10.0,27,0.00,,,0.00,WUHU216DAVISVP2,2013-05-05 06:42:00,
2013-05-04 23:47:00,63.9,29.1,29.86,SW,216,6.0,10.0,27,0.00,,,0.00,WUHU216DAVISVP2,2013-05-05 06:47:00,
2013-05-04 23:52:00,64.0,29.2,29.86,SW,217,7.0,13.0,27,0.00,,,0.00,WUHU216DAVISVP2,2013-05-05 06:52:00,
2013-05-04 23:57:00,64.0,29.2,29.86,SW,220,7.0,13.0,27,0.00,,,0.00,WUHU216DAVISVP2,2013-05-05 06:57:00,